Doha, Qatar

10:31 PM +03 on November 24, 2017 (GMT +0300)
Doha International

Weather History for OTBD - March, 2012

Change the Weather History Date:

Sunday, March 25, 2012

  Actual Average Record
Temperature  
Mean Temperature 74 °F -  
Max Temperature 82 °F 88 °F 95 °F (2008)
Min Temperature 67 °F 68 °F 35 °F (2006)
Cooling Degree Days 10    
Growing Degree Days 24 (Base 50)    
Moisture  
Dew Point 46 °F    
Average Humidity 39    
Maximum Humidity 64    
Minimum Humidity 9    
Precipitation  
Precipitation 0.00 in 0.01 in - ()
Sea Level Pressure  
Sea Level Pressure 30.01 in    
Wind  
Wind Speed 10 mph ()    
Max Wind Speed 18 mph    
Max Gust Speed -    
Visibility 7.2 miles    
Events Rain , Thunderstorm    
Averages and records for this station are not official NWS values.
T = Trace of Precipitation, MM = Missing Value Source: Averaged Metar Reports

Daily Weather History Graph

Daily Weather History Graph

Search for Another Location

Airport or City:

Trip Planner

Search our weather history database for the weather conditions in past years. The results will help you decide how hot, cold, wet, or windy it might be!

Date:

Astronomy

Mar. 25, 2012 Rise Set
Actual Time 5:32 AM +03 5:47 PM +03
Civil Twilight 5:09 AM +03 6:10 PM +03
Nautical Twilight 4:42 AM +03 6:36 PM +03
Astronomical Twilight 4:15 AM +03 7:03 PM +03
Moon 6:51 AM +03 (3/25) 8:17 PM +03 (3/25)
Length of Visible Light 13h 00m
Length of Day
12h 14m
Waxing Crescent, 7% of the Moon is Illuminated
Mar 25
Waxing Crescent
Mar 30
First Quarter
Apr 6
Full
Apr 13
Last Quarter
Apr 21
New

Hourly Weather History & Observations

Time (+03) Temp. Dew Point Humidity Pressure Visibility Wind Dir Wind Speed Gust Speed Precip Events Conditions
12:00 AM 69.8 °F 57.2 °F 64% 30.01 in - North 12.7 mph - N/A   Clear
12:30 AM 69.8 °F 57.2 °F 64% 29.98 in - North 11.5 mph - N/A   Clear
1:00 AM 69.8 °F 53.6 °F 56% 30.01 in - NNW 9.2 mph - N/A   Clear
1:30 AM 69.8 °F 53.6 °F 56% 29.98 in - North 9.2 mph - N/A   Clear
2:00 AM 69.8 °F 53.6 °F 56% 30.01 in - NNW 9.2 mph - N/A   Clear
2:30 AM 69.8 °F 51.8 °F 53% 30.01 in - NW 5.8 mph - N/A   Clear
3:00 AM 69 °F 53 °F 47% 30.01 in 6 mi NW 8.1 mph - -  
3:00 AM 69.8 °F 53.6 °F 56% 30.01 in - NW 8.1 mph - N/A   Clear
3:30 AM 68.0 °F 51.8 °F 56% 30.01 in - NNW 9.2 mph - N/A   Clear
4:00 AM 68.0 °F 51.8 °F 56% 30.01 in - NNW 8.1 mph - N/A   Clear
4:30 AM 68.0 °F 50.0 °F 52% 30.01 in - NNW 9.2 mph - N/A   Clear
5:00 AM 68.0 °F 48.2 °F 49% 30.01 in - NNW 10.4 mph - N/A   Clear
5:30 AM 68.0 °F 48.2 °F 49% 30.04 in - NNW 12.7 mph - N/A   Clear
6:00 AM 68.0 °F 48.2 °F 49% 30.04 in - NNW 11.5 mph - N/A   Clear
6:30 AM 68.0 °F 48.2 °F 49% 30.06 in - NNW 9.2 mph - N/A   Clear
7:00 AM 69.8 °F 50.0 °F 49% 30.06 in - NW 5.8 mph - N/A   Clear
7:30 AM 71.6 °F 50.0 °F 46% 30.09 in - NW 6.9 mph - N/A   Clear
8:30 AM 73.4 °F 48.2 °F 41% 30.09 in - NNW 12.7 mph - N/A   Clear
9:00 AM 74 °F 49 °F 30% 30.09 in 7 mi NNW 11.5 mph - -  
9:00 AM 75.2 °F 48.2 °F 38% 30.06 in - NNW 11.5 mph - N/A   Clear
9:30 AM 77.0 °F 44.6 °F 32% 30.06 in - North 12.7 mph - N/A   Clear
10:00 AM 77.0 °F 42.8 °F 29% 30.06 in - North 13.8 mph - N/A   Clear
10:30 AM 78.8 °F 42.8 °F 28% 30.06 in - North 13.8 mph - N/A   Clear
11:00 AM 80.6 °F 41.0 °F 24% 30.06 in - North 16.1 mph - N/A   Clear
11:30 AM 78.8 °F 46.4 °F 32% 30.04 in - North 15.0 mph - N/A   Clear
12:00 PM 82.4 °F 33.8 °F 17% 30.04 in - North 13.8 mph - N/A   Clear
12:30 PM 80.6 °F 35.6 °F 20% 30.04 in - North 13.8 mph - N/A   Clear
1:00 PM 80.6 °F 32.0 °F 17% 30.01 in - North 15.0 mph - N/A   Clear
1:30 PM 82.4 °F 24.8 °F 12% 30.01 in - North 13.8 mph - N/A   Clear
2:00 PM 82.4 °F 35.6 °F 19% 30.01 in - NNE 12.7 mph - N/A   Clear
2:30 PM 82.4 °F 35.6 °F 19% 29.98 in - North 12.7 mph - N/A   Clear
3:00 PM 81 °F 32 °F 9% 30.00 in 10 mi North 15.0 mph - -   Scattered Clouds
3:00 PM 80.6 °F 32.0 °F 17% 29.98 in - North 15.0 mph - N/A   Clear
3:30 PM 78.8 °F 41.0 °F 26% 29.98 in - North 12.7 mph - N/A   Clear
4:00 PM 77.0 °F 44.6 °F 32% 29.98 in - North 13.8 mph - N/A   Clear
4:30 PM 77.0 °F 46.4 °F 34% 29.98 in - North 12.7 mph - N/A   Clear
5:00 PM 75.2 °F 48.2 °F 38% 29.98 in - North 12.7 mph - N/A   Clear
5:30 PM 75.2 °F 46.4 °F 36% 29.98 in - North 13.8 mph - N/A   Clear
6:00 PM 73.4 °F 50.0 °F 44% 29.98 in - North 13.8 mph - N/A   Clear
6:30 PM 73.4 °F 51.8 °F 47% 29.98 in - North 10.4 mph - N/A   Clear
7:00 PM 73.4 °F 48.2 °F 41% 29.98 in - North 11.5 mph - N/A   Clear
7:30 PM 73.4 °F 51.8 °F 47% 29.98 in - North 9.2 mph - N/A   Clear
8:00 PM 73.4 °F 48.2 °F 41% 29.98 in - North 9.2 mph - N/A   Clear
8:30 PM 73.4 °F 46.4 °F 38% 29.98 in - North 10.4 mph - N/A   Clear
9:00 PM 73 °F 45 °F 26% 30.00 in 9 mi North 9.2 mph - -   Scattered Clouds
9:00 PM 73.4 °F 44.6 °F 36% 29.98 in - North 9.2 mph - N/A   Clear
9:30 PM 73.4 °F 46.4 °F 38% 29.98 in - NNW 6.9 mph - N/A   Clear
10:00 PM 73.4 °F 46.4 °F 38% 29.98 in 6.2 mi NNW 8.1 mph - N/A Rain , Thunderstorm Light Thunderstorms and Rain
11:00 PM 71.6 °F 42.8 °F 35% 29.98 in 6.2 mi North 18.4 mph - N/A   Scattered Clouds
11:30 PM 69.8 °F 50.0 °F 49% 29.98 in 6.2 mi North 11.5 mph - N/A   Scattered Clouds